AFL0114 UUWW-UWGG

Flight info

Callsign AFL0114
Flight time N/A
Altitude 37000
Route KOGOM3D KOGOM L94 USTOK USTOK2P
Aircraft A20N/M-VGDW/C

Departure

Time N/A
Airport Vnukovo International Airport (UUWW)

Arrival

Time 2026-04-24 21:03
Airport Nizhny Novgorod / Strigino International Airport (UWGG)
Time Latitude Longitude Altitude Speed Heading
2026-04-24 20:15 55.60448 38.22760 22482 ft 404 kts 103°
2026-04-24 20:16 55.59814 38.27632 23057 ft 408 kts 103°
2026-04-24 20:16 55.59175 38.32545 23628 ft 411 kts 103°
2026-04-24 20:16 55.58533 38.37500 24042 ft 415 kts 103°
2026-04-24 20:16 55.58173 38.42562 24153 ft 416 kts 89°
2026-04-24 20:17 55.58547 38.47608 24155 ft 416 kts 74°
2026-04-24 20:17 55.61134 38.56730 24158 ft 416 kts 58°
2026-04-24 20:17 55.62662 38.61083 24157 ft 416 kts 58°
2026-04-24 20:18 55.63662 38.63960 24157 ft 416 kts 58°
2026-04-24 20:18 55.65660 38.69832 24156 ft 416 kts 59°
2026-04-24 20:18 55.67114 38.74192 24156 ft 416 kts 59°
2026-04-24 20:18 55.68572 38.78610 24155 ft 415 kts 59°
2026-04-24 20:19 55.70026 38.83035 24155 ft 415 kts 59°
2026-04-24 20:19 55.71477 38.87465 24154 ft 415 kts 59°
2026-04-24 20:19 55.72982 38.91846 24152 ft 415 kts 55°
2026-04-24 20:19 55.74770 38.95883 24120 ft 415 kts 47°
2026-04-24 20:20 55.76755 38.99611 23838 ft 415 kts 46°
2026-04-24 20:20 55.78738 39.03333 23394 ft 413 kts 46°
2026-04-24 20:20 55.80696 39.07030 22939 ft 407 kts 46°
2026-04-24 20:20 55.82624 39.10680 22486 ft 403 kts 46°
2026-04-24 20:21 55.84419 39.14501 22038 ft 402 kts 54°
2026-04-24 20:21 55.85899 39.18646 21594 ft 400 kts 61°
2026-04-24 20:21 55.87139 39.23070 21138 ft 397 kts 64°
2026-04-24 20:21 55.88355 39.27445 20691 ft 394 kts 63°
2026-04-24 20:22 55.89575 39.31800 20256 ft 391 kts 63°
2026-04-24 20:22 55.90785 39.36125 20057 ft 386 kts 63°
2026-04-24 20:22 55.91982 39.40422 20003 ft 390 kts 63°
2026-04-24 20:22 55.93177 39.44722 20000 ft 390 kts 63°
2026-04-24 20:23 55.94375 39.49050 20000 ft 390 kts 64°
2026-04-24 20:23 55.95582 39.53420 20000 ft 390 kts 64°
2026-04-24 20:23 55.96781 39.57772 19996 ft 390 kts 64°
2026-04-24 20:23 55.97979 39.62125 19999 ft 390 kts 64°
2026-04-24 20:24 55.99176 39.66485 20002 ft 390 kts 64°
2026-04-24 20:24 56.00399 39.70822 19991 ft 389 kts 62°
2026-04-24 20:24 56.01653 39.75044 19756 ft 387 kts 62°
2026-04-24 20:24 56.02929 39.79289 19306 ft 385 kts 62°
2026-04-24 20:25 56.04173 39.83447 18771 ft 382 kts 62°
2026-04-24 20:25 56.05419 39.87647 18203 ft 379 kts 62°
2026-04-24 20:25 56.06650 39.91818 17636 ft 376 kts 62°
2026-04-24 20:25 56.07863 39.95949 17095 ft 373 kts 62°
2026-04-24 20:26 56.09067 40.00061 17151 ft 379 kts 62°
2026-04-24 20:26 56.10293 40.04256 16520 ft 377 kts 62°
2026-04-24 20:26 56.11501 40.08396 15983 ft 373 kts 62°
2026-04-24 20:26 56.12692 40.12484 15446 ft 369 kts 62°
2026-04-24 20:27 56.13878 40.16560 14908 ft 366 kts 62°
2026-04-24 20:27 56.15047 40.20588 14375 ft 363 kts 62°
2026-04-24 20:27 56.16204 40.24580 13864 ft 359 kts 62°
2026-04-24 20:27 56.17339 40.28505 13360 ft 356 kts 62°
2026-04-24 20:28 56.18477 40.32444 12809 ft 352 kts 62°
2026-04-24 20:28 56.19600 40.36345 12280 ft 348 kts 62°
2026-04-24 20:28 56.20693 40.40143 11748 ft 345 kts 62°
2026-04-24 20:28 56.21790 40.43960 11221 ft 341 kts 61°
2026-04-24 20:29 56.22524 40.46519 10890 ft 339 kts 61°
2026-04-24 20:29 56.23945 40.51482 10227 ft 335 kts 61°
2026-04-24 20:29 56.25004 40.55186 9727 ft 332 kts 61°
2026-04-24 20:29 56.25879 40.59010 9227 ft 331 kts 73°
2026-04-24 20:30 56.26210 40.63089 8702 ft 330 kts 87°
2026-04-24 20:30 56.26073 40.67207 8180 ft 328 kts 92°
2026-04-24 20:30 56.25897 40.71284 7742 ft 323 kts 92°
2026-04-24 20:30 56.25734 40.75310 7595 ft 325 kts 91°
2026-04-24 20:31 56.25573 40.79370 7568 ft 325 kts 91°
2026-04-24 20:31 56.25416 40.83310 7567 ft 325 kts 91°
2026-04-24 20:31 56.25250 40.87429 7565 ft 325 kts 91°
2026-04-24 20:31 56.25083 40.91480 7562 ft 325 kts 92°
2026-04-24 20:32 56.24915 40.95531 7562 ft 325 kts 92°
2026-04-24 20:32 56.24745 40.99582 7562 ft 325 kts 92°
2026-04-24 20:32 56.24573 41.03645 7561 ft 325 kts 92°
2026-04-24 20:32 56.24400 41.07695 7556 ft 325 kts 92°
2026-04-24 20:33 56.24226 41.11747 7557 ft 325 kts 92°
2026-04-24 20:33 56.24050 41.15800 7554 ft 325 kts 92°
2026-04-24 20:33 56.23873 41.19852 7551 ft 325 kts 92°
2026-04-24 20:33 56.23695 41.23900 7551 ft 325 kts 92°
2026-04-24 20:34 56.23517 41.27904 7549 ft 325 kts 92°
2026-04-24 20:34 56.23335 41.31963 7548 ft 325 kts 93°
2026-04-24 20:34 56.23153 41.36010 7546 ft 325 kts 93°
2026-04-24 20:34 56.22969 41.40055 7545 ft 325 kts 93°
2026-04-24 20:35 56.22783 41.44115 7543 ft 325 kts 93°
2026-04-24 20:35 56.22596 41.48167 7543 ft 326 kts 93°
2026-04-24 20:35 56.22407 41.52239 7540 ft 325 kts 93°
2026-04-24 20:35 56.22217 41.56297 7542 ft 326 kts 93°
2026-04-24 20:36 56.22028 41.60298 7533 ft 326 kts 94°
2026-04-24 20:36 56.21835 41.64363 7537 ft 326 kts 94°
2026-04-24 20:36 56.21640 41.68434 7535 ft 326 kts 94°
2026-04-24 20:36 56.21445 41.72484 7524 ft 326 kts 94°
2026-04-24 20:37 56.21248 41.76550 7535 ft 326 kts 94°
2026-04-24 20:37 56.21049 41.80615 7534 ft 326 kts 94°
2026-04-24 20:37 56.20850 41.84681 7530 ft 327 kts 94°
2026-04-24 20:37 56.20648 41.88747 7523 ft 327 kts 94°
2026-04-24 20:38 56.20446 41.92822 7529 ft 327 kts 94°
2026-04-24 20:38 56.20243 41.96877 7423 ft 324 kts 94°
2026-04-24 20:38 56.20039 42.00892 7129 ft 319 kts 94°
2026-04-24 20:38 56.19839 42.04785 7006 ft 306 kts 94°
2026-04-24 20:39 56.19647 42.08518 6879 ft 293 kts 93°
2026-04-24 20:39 56.19465 42.12040 6755 ft 280 kts 93°
2026-04-24 20:39 56.19286 42.15445 6642 ft 268 kts 93°
2026-04-24 20:39 56.19110 42.18698 6525 ft 256 kts 93°
2026-04-24 20:40 56.18943 42.21806 6426 ft 244 kts 93°
2026-04-24 20:40 56.18783 42.24770 6325 ft 232 kts 93°
2026-04-24 20:40 56.18630 42.27576 6223 ft 219 kts 93°
2026-04-24 20:40 56.18486 42.30234 6094 ft 209 kts 92°
2026-04-24 20:41 56.18347 42.32772 5949 ft 200 kts 92°
2026-04-24 20:41 56.18214 42.35217 5693 ft 198 kts 92°
2026-04-24 20:41 56.18079 42.37679 5408 ft 197 kts 91°
2026-04-24 20:41 56.17946 42.40118 5133 ft 195 kts 91°
2026-04-24 20:42 56.17812 42.42543 4865 ft 193 kts 91°
2026-04-24 20:42 56.17680 42.44929 4806 ft 196 kts 91°
2026-04-24 20:42 56.17546 42.47362 4792 ft 194 kts 91°
2026-04-24 20:42 56.17411 42.49776 4791 ft 195 kts 91°
2026-04-24 20:43 56.17276 42.52202 4797 ft 195 kts 91°
2026-04-24 20:43 56.17144 42.54596 4794 ft 195 kts 91°
2026-04-24 20:43 56.17006 42.57017 4799 ft 195 kts 92°
2026-04-24 20:43 56.16868 42.59440 4786 ft 195 kts 92°
2026-04-24 20:44 56.16730 42.61851 4796 ft 194 kts 92°
2026-04-24 20:44 56.16591 42.64261 4801 ft 194 kts 92°
2026-04-24 20:44 56.16453 42.66675 4782 ft 194 kts 92°
2026-04-24 20:44 56.16315 42.69103 4776 ft 195 kts 92°
2026-04-24 20:45 56.16223 42.70693 4783 ft 193 kts 92°
2026-04-24 20:45 56.16037 42.73921 4786 ft 195 kts 92°
2026-04-24 20:45 56.15897 42.76334 4772 ft 193 kts 92°
2026-04-24 20:45 56.15760 42.78703 4772 ft 194 kts 92°
2026-04-24 20:46 56.15620 42.81099 4779 ft 193 kts 92°
2026-04-24 20:46 56.15480 42.83489 4776 ft 193 kts 92°
2026-04-24 20:46 56.15340 42.85881 4777 ft 193 kts 92°
2026-04-24 20:46 56.15197 42.88303 4789 ft 198 kts 93°
2026-04-24 20:47 56.15051 42.90802 4789 ft 212 kts 93°
2026-04-24 20:47 56.14893 42.93529 4763 ft 221 kts 94°
2026-04-24 20:47 56.14728 42.96268 4768 ft 221 kts 94°
2026-04-24 20:47 56.14562 42.99014 4768 ft 221 kts 94°
2026-04-24 20:48 56.14396 43.01753 4770 ft 221 kts 94°
2026-04-24 20:48 56.14231 43.04491 4766 ft 221 kts 94°
2026-04-24 20:48 56.14066 43.07199 4761 ft 221 kts 94°
2026-04-24 20:48 56.13897 43.09974 4763 ft 221 kts 95°
2026-04-24 20:49 56.13732 43.12682 4759 ft 221 kts 95°
2026-04-24 20:49 56.13564 43.15419 4760 ft 221 kts 95°
2026-04-24 20:49 56.13396 43.18161 4752 ft 221 kts 95°
2026-04-24 20:49 56.13160 43.20884 4752 ft 221 kts 109°
2026-04-24 20:50 56.12320 43.23181 4752 ft 224 kts 138°
2026-04-24 20:50 56.11130 43.24985 4750 ft 224 kts 139°
2026-04-24 20:50 56.09939 43.26786 4746 ft 224 kts 139°
2026-04-24 20:50 56.08751 43.28602 4749 ft 223 kts 139°
2026-04-24 20:51 56.07586 43.30393 4748 ft 224 kts 139°
2026-04-24 20:51 56.06406 43.32213 4744 ft 224 kts 139°
2026-04-24 20:51 56.05226 43.34033 4746 ft 224 kts 139°
2026-04-24 20:51 56.04043 43.35855 4746 ft 224 kts 139°
2026-04-24 20:52 56.02861 43.37672 4744 ft 224 kts 139°
2026-04-24 20:52 56.01675 43.39494 4745 ft 224 kts 139°
2026-04-24 20:52 56.00489 43.41315 4744 ft 225 kts 139°
2026-04-24 20:52 55.99318 43.43112 4742 ft 224 kts 137°
2026-04-24 20:53 55.98391 43.45354 4743 ft 223 kts 111°
2026-04-24 20:53 55.98016 43.48002 4740 ft 223 kts 100°
2026-04-24 20:53 55.97702 43.50705 4737 ft 222 kts 101°
2026-04-24 20:53 55.97374 43.53412 4734 ft 222 kts 101°
2026-04-24 20:54 55.97040 43.56114 4732 ft 223 kts 102°
2026-04-24 20:54 55.96704 43.58796 4729 ft 216 kts 102°
2026-04-24 20:54 55.96386 43.61325 4729 ft 205 kts 102°
2026-04-24 20:54 55.96074 43.63813 4722 ft 200 kts 101°
2026-04-24 20:55 55.96038 43.66137 4758 ft 177 kts 75°
2026-04-24 20:55 55.96578 43.67923 4720 ft 156 kts 44°
2026-04-24 20:55 55.97392 43.68966 4728 ft 141 kts 25°
2026-04-24 20:55 55.98333 43.69585 4724 ft 142 kts 14°
2026-04-24 20:56 55.99294 43.69987 4713 ft 144 kts 11°
2026-04-24 20:56 56.00270 43.70339 4614 ft 143 kts 10°
2026-04-24 20:56 56.01243 43.70689 4429 ft 141 kts 11°
2026-04-24 20:56 56.02207 43.71037 4248 ft 140 kts 11°
2026-04-24 20:57 56.03148 43.71378 4057 ft 139 kts 11°
2026-04-24 20:57 56.04084 43.71715 3882 ft 136 kts 11°
2026-04-24 20:57 56.05006 43.72049 3685 ft 134 kts 11°
2026-04-24 20:57 56.05914 43.72379 3506 ft 131 kts 11°
2026-04-24 20:58 56.06805 43.72700 3327 ft 131 kts 12°
2026-04-24 20:58 56.07690 43.73020 3149 ft 130 kts 11°
2026-04-24 20:58 56.08581 43.73343 2970 ft 131 kts 12°
2026-04-24 20:58 56.09464 43.73664 2801 ft 127 kts 12°
2026-04-24 20:59 56.10316 43.73973 2622 ft 126 kts 11°
2026-04-24 20:59 56.11175 43.74285 2448 ft 125 kts 11°
2026-04-24 20:59 56.12024 43.74593 2266 ft 123 kts 10°
2026-04-24 20:59 56.12849 43.74893 2100 ft 119 kts
2026-04-24 21:00 56.13383 43.75087 1990 ft 118 kts
2026-04-24 21:00 56.14189 43.75380 1816 ft 119 kts
2026-04-24 21:00 56.15015 43.75679 1654 ft 121 kts
2026-04-24 21:00 56.15843 43.75967 1442 ft 122 kts
2026-04-24 21:01 56.16680 43.76259 1256 ft 123 kts
2026-04-24 21:01 56.17527 43.76594 1089 ft 125 kts
2026-04-24 21:01 56.18388 43.76906 921 ft 128 kts
2026-04-24 21:01 56.19253 43.77223 750 ft 126 kts
2026-04-24 21:02 56.20116 43.77537 590 ft 126 kts 10°
2026-04-24 21:02 56.20981 43.77853 411 ft 127 kts 11°
2026-04-24 21:02 56.21824 43.78162 337 ft 118 kts 11°
2026-04-24 21:02 56.22542 43.78396 265 ft 75 kts 13°
2026-04-24 21:03 56.22806 43.78498 266 ft 29 kts 10°
2026-04-24 21:03 56.23013 43.78592 269 ft 30 kts 12°
2026-04-24 21:03 56.23217 43.78672 268 ft 19 kts 13°
2026-04-24 21:03 56.23343 43.78723 265 ft 33 kts 12°
2026-04-24 21:04 56.23490 43.78784 264 ft 12 kts 19°